Location: Bremen
(53.0793°N, 8.8017°E)
Time: 11:22:08
(UTC+02:00)

Transit 2A Rocket - Pass Details

Date: 19 June 2024
Orbit: 582 x 910 km, 66.7° (Epoch: 19 July)

Event Time Altitude Azimuth Distance (km) Brightness Sun altitude
Rises 03:47:01 0° 307° (NW) 3,376 8.4 -7.6°
Reaches altitude 10° 03:49:56 10° 322° (NW) 2,491 7.9 -7.4°
Maximum altitude 03:54:35 24° 15° (NNE) 1,758 7.9 -7.0°
Drops below altitude 10° 03:59:24 10° 67° (ENE) 2,592 8.7 -6.6°
Sets 04:02:29 0° 81° (E) 3,544 9.2 -6.3°
